[Date Prev][Date Next][Thread Prev][Thread Next] - [Date Index][Thread Index][Author Index]

2 Line ISS Keps 8-9



ISS
1 25544U 98067A   01221.18450231  .00021171  00000-0  28049-3 0  3183
2 25544  51.6381 181.3019 0011515 352.3426 197.6700 15.58163594155353


----
Via the sarex mailing list at AMSAT.ORG courtesy of AMSAT-NA.
To unsubscribe, send "unsubscribe sarex" to Majordomo@amsat.org



AMSAT Top AMSAT Home